BAW2LJ KBWI-EGLL

Flight info

Callsign BAW2LJ
Flight time 6h 47m
Altitude 35000
Route DUKPN1 BROSS Q419 RBV Q22 FOXWD DCT TAFFY DCT JANJO/M083F370 DCT 5650N DCT 5740N DCT 5730N DCT 5620N DCT RESNO/N0476F370 DCT NETKI DCT BOFUM Q37 MALUD Q38 NUGRA
Aircraft B77W/H-SDE1E2E3FGHIJ2J3J4J5M1RWXY/LB1D1

Departure

Time 2026-04-30 13:39
Airport Baltimore/Washington International Thurgood Marshall Airport (KBWI)

Arrival

Time 2026-04-30 20:26
Airport London Heathrow Airport (EGLL)
Time Latitude Longitude Altitude Speed Heading
2026-04-30 12:48 39.18300 -76.66836 161 ft 0 kts 153°
2026-04-30 13:25 39.18335 -76.66858 161 ft 4 kts 154°
2026-04-30 13:26 39.18405 -76.66881 162 ft 4 kts 179°
2026-04-30 13:26 39.18445 -76.66888 165 ft 3 kts 145°
2026-04-30 13:27 39.18461 -76.66902 167 ft 0 kts 147°
2026-04-30 13:29 39.18454 -76.66896 166 ft 5 kts 147°
2026-04-30 13:30 39.18467 -76.66688 161 ft 10 kts 56°
2026-04-30 13:31 39.18456 -76.66536 161 ft 10 kts 140°
2026-04-30 13:31 39.18337 -76.66335 161 ft 10 kts 108°
2026-04-30 13:32 39.18224 -76.66208 160 ft 12 kts 142°
2026-04-30 13:32 39.18075 -76.66076 159 ft 19 kts 147°
2026-04-30 13:33 39.17837 -76.65883 152 ft 18 kts 148°
2026-04-30 13:33 39.17631 -76.65720 151 ft 16 kts 148°
2026-04-30 13:34 39.17536 -76.65660 147 ft 13 kts 171°
2026-04-30 13:34 39.17388 -76.65532 146 ft 0 kts 167°
2026-04-30 13:35 39.17378 -76.65529 146 ft 2 kts 169°
2026-04-30 13:35 39.17284 -76.65503 145 ft 14 kts 147°
2026-04-30 13:36 39.17168 -76.65386 141 ft 9 kts 122°
2026-04-30 13:36 39.17172 -76.65330 139 ft 0 kts 57°
2026-04-30 13:36 39.17189 -76.65307 139 ft 4 kts 36°
2026-04-30 13:37 39.17230 -76.65289 138 ft 8 kts
2026-04-30 13:37 39.17267 -76.65368 141 ft 0 kts 276°
2026-04-30 13:38 39.17268 -76.65384 142 ft 12 kts 276°
2026-04-30 13:38 39.17295 -76.65817 149 ft 85 kts 274°
2026-04-30 13:38 39.17451 -76.68376 451 ft 168 kts 276°
2026-04-30 13:39 39.17653 -76.71368 1798 ft 180 kts 278°
2026-04-30 13:39 39.17080 -76.74852 2567 ft 228 kts 233°
2026-04-30 13:40 39.15742 -76.76046 3313 ft 243 kts 202°
2026-04-30 13:40 39.14036 -76.76161 4149 ft 254 kts 166°
2026-04-30 13:40 39.12457 -76.75047 4787 ft 270 kts 137°
2026-04-30 13:40 39.11698 -76.73762 5213 ft 278 kts 116°
2026-04-30 13:41 39.11131 -76.70481 6138 ft 285 kts 97°
2026-04-30 13:41 39.10914 -76.67918 6917 ft 290 kts 96°
2026-04-30 13:41 39.10703 -76.65305 7613 ft 297 kts 96°
2026-04-30 13:41 39.10487 -76.62663 8330 ft 304 kts 97°
2026-04-30 13:42 39.10255 -76.59923 9041 ft 312 kts 97°
2026-04-30 13:42 39.10008 -76.57108 9742 ft 319 kts 97°
2026-04-30 13:42 39.09471 -76.51206 10590 ft 354 kts 98°
2026-04-30 13:43 39.09239 -76.47924 10774 ft 380 kts 91°
2026-04-30 13:43 39.09455 -76.44455 11271 ft 396 kts 80°
2026-04-30 13:43 39.10146 -76.40979 11938 ft 405 kts 70°
2026-04-30 13:43 39.11112 -76.37526 12714 ft 413 kts 68°
2026-04-30 13:44 39.12120 -76.34017 13524 ft 422 kts 69°
2026-04-30 13:44 39.13122 -76.30425 14234 ft 430 kts 69°
2026-04-30 13:44 39.13775 -76.28025 14762 ft 433 kts 70°
2026-04-30 13:44 39.14751 -76.24311 15617 ft 437 kts 72°
2026-04-30 13:45 39.15940 -76.16533 17234 ft 447 kts 84°
2026-04-30 13:45 39.16349 -76.12527 18010 ft 454 kts 83°
2026-04-30 13:45 39.16788 -76.08481 18703 ft 459 kts 83°
2026-04-30 13:46 39.17252 -76.04383 19416 ft 464 kts 83°
2026-04-30 13:46 39.17727 -76.00250 20098 ft 469 kts 83°
2026-04-30 13:46 39.18198 -75.96112 20758 ft 475 kts 83°
2026-04-30 13:46 39.18838 -75.91921 21308 ft 480 kts 72°
2026-04-30 13:47 39.20205 -75.87976 21883 ft 484 kts 56°
2026-04-30 13:47 39.22214 -75.84517 22565 ft 481 kts 41°
2026-04-30 13:47 39.24703 -75.81659 23203 ft 478 kts 34°
2026-04-30 13:47 39.27310 -75.78920 23713 ft 484 kts 33°
2026-04-30 13:48 39.29930 -75.76162 24208 ft 490 kts 34°
2026-04-30 13:48 39.32558 -75.73349 24712 ft 496 kts 34°
2026-04-30 13:48 39.35218 -75.70453 25222 ft 501 kts 35°
2026-04-30 13:48 39.37884 -75.67517 25724 ft 507 kts 35°
2026-04-30 13:49 39.40601 -75.64516 26190 ft 512 kts 35°
2026-04-30 13:49 39.43327 -75.61508 26653 ft 518 kts 35°
2026-04-30 13:49 39.46087 -75.58469 27121 ft 523 kts 35°
2026-04-30 13:49 39.48047 -75.56317 27442 ft 526 kts 35°
2026-04-30 13:50 39.50847 -75.53242 27908 ft 531 kts 35°
2026-04-30 13:50 39.56521 -75.46995 28771 ft 541 kts 35°
2026-04-30 13:50 39.59400 -75.43817 29179 ft 546 kts 35°
2026-04-30 13:51 39.62311 -75.40601 29589 ft 550 kts 35°
2026-04-30 13:51 39.65245 -75.37360 29975 ft 555 kts 34°
2026-04-30 13:51 39.68196 -75.34098 30308 ft 558 kts 35°
2026-04-30 13:51 39.71122 -75.30859 30663 ft 560 kts 35°
2026-04-30 13:52 39.74092 -75.27565 31124 ft 559 kts 35°
2026-04-30 13:52 39.77043 -75.24286 31685 ft 556 kts 35°
2026-04-30 13:52 39.79897 -75.20890 32266 ft 556 kts 40°
2026-04-30 13:52 39.82517 -75.17178 32780 ft 557 kts 45°
2026-04-30 13:53 39.85045 -75.13335 33195 ft 558 kts 46°
2026-04-30 13:53 39.87562 -75.09460 33596 ft 558 kts 46°
2026-04-30 13:53 39.90086 -75.05608 33937 ft 558 kts 45°
2026-04-30 13:53 39.92614 -75.01808 34178 ft 559 kts 45°
2026-04-30 13:54 39.95175 -74.97981 34421 ft 561 kts 45°
2026-04-30 13:54 39.97668 -74.94038 34608 ft 565 kts 50°
2026-04-30 13:54 39.99915 -74.89831 34764 ft 568 kts 54°
2026-04-30 13:54 40.02085 -74.85513 34811 ft 565 kts 54°
2026-04-30 13:55 40.06302 -74.76990 34842 ft 554 kts 54°
2026-04-30 13:55 40.10548 -74.68572 34853 ft 552 kts 54°
2026-04-30 13:56 40.14773 -74.60256 34857 ft 551 kts 54°
2026-04-30 13:56 40.19168 -74.52038 34852 ft 548 kts 47°
2026-04-30 13:57 40.24397 -74.44844 34858 ft 541 kts 36°
2026-04-30 13:57 40.30195 -74.38685 34873 ft 538 kts 33°
2026-04-30 13:58 40.38986 -74.29445 34862 ft 539 kts 34°
2026-04-30 13:59 40.44793 -74.23214 34865 ft 539 kts 34°
2026-04-30 13:59 40.50603 -74.16955 34863 ft 538 kts 34°
2026-04-30 14:00 40.56287 -74.10831 34869 ft 537 kts 34°
2026-04-30 14:00 40.64953 -74.01481 34853 ft 535 kts 35°
2026-04-30 14:01 40.70696 -73.95266 34846 ft 534 kts 35°
2026-04-30 14:01 40.76446 -73.89026 34847 ft 533 kts 35°
2026-04-30 14:02 40.82146 -73.82829 34850 ft 532 kts 35°
2026-04-30 14:02 40.87478 -73.75964 34865 ft 537 kts 46°
2026-04-30 14:03 40.91927 -73.67982 34853 ft 538 kts 53°
2026-04-30 14:03 40.96125 -73.59851 34838 ft 538 kts 53°
2026-04-30 14:04 41.00375 -73.51693 34837 ft 537 kts 53°
2026-04-30 14:04 41.04659 -73.43548 34838 ft 537 kts 53°
2026-04-30 14:05 41.08940 -73.35410 34855 ft 537 kts 53°
2026-04-30 14:05 41.13174 -73.27329 34854 ft 536 kts 53°
2026-04-30 14:06 41.19549 -73.15112 34854 ft 536 kts 53°
2026-04-30 14:07 41.25891 -73.02911 34850 ft 535 kts 54°
2026-04-30 14:08 41.31985 -72.90484 34849 ft 535 kts 58°
2026-04-30 14:08 41.37649 -72.77698 34851 ft 534 kts 58°
2026-04-30 14:09 41.41439 -72.69158 34840 ft 534 kts 58°
2026-04-30 14:10 41.47112 -72.56437 34838 ft 532 kts 58°
2026-04-30 14:10 41.50888 -72.47944 34852 ft 531 kts 58°
2026-04-30 14:11 41.54652 -72.39450 34834 ft 531 kts 59°
2026-04-30 14:11 41.58383 -72.31001 34849 ft 530 kts 59°
2026-04-30 14:12 41.62128 -72.22499 34846 ft 530 kts 59°
2026-04-30 14:12 41.65866 -72.13988 34828 ft 529 kts 59°
2026-04-30 14:13 41.69597 -72.05470 34847 ft 529 kts 59°
2026-04-30 14:13 41.73293 -71.97004 34846 ft 528 kts 59°
2026-04-30 14:14 41.77000 -71.88495 34846 ft 528 kts 59°
2026-04-30 14:14 41.81422 -71.80824 34853 ft 523 kts 41°
2026-04-30 14:15 41.87252 -71.75080 34852 ft 516 kts 25°
2026-04-30 14:15 41.93604 -71.70564 34860 ft 516 kts 24°
2026-04-30 14:16 41.99948 -71.66088 34846 ft 517 kts 25°
2026-04-30 14:16 42.06312 -71.61499 34845 ft 518 kts 26°
2026-04-30 14:17 42.12609 -71.56894 34849 ft 518 kts 26°
2026-04-30 14:17 42.18955 -71.52231 34846 ft 518 kts 26°
2026-04-30 14:18 42.25300 -71.47562 34848 ft 518 kts 26°
2026-04-30 14:18 42.34766 -71.40583 34844 ft 517 kts 26°
2026-04-30 14:19 42.44230 -71.33584 34841 ft 516 kts 26°
2026-04-30 14:20 42.50549 -71.28897 34842 ft 516 kts 27°
2026-04-30 14:20 42.59998 -71.21867 34847 ft 515 kts 27°
2026-04-30 14:21 42.66255 -71.17199 34877 ft 515 kts 27°
2026-04-30 14:22 42.74633 -71.10931 34872 ft 515 kts 27°
2026-04-30 14:22 42.85063 -71.03101 34869 ft 514 kts 27°
2026-04-30 14:23 42.97566 -70.93674 34833 ft 514 kts 28°
2026-04-30 14:24 43.05899 -70.87366 34836 ft 513 kts 28°
2026-04-30 14:25 43.18420 -70.77851 34835 ft 513 kts 28°
2026-04-30 14:26 43.27749 -70.70733 34860 ft 513 kts 29°
2026-04-30 14:27 43.37124 -70.63554 34859 ft 513 kts 29°
2026-04-30 14:27 43.43331 -70.58786 34863 ft 513 kts 29°
2026-04-30 14:28 43.52654 -70.51604 34858 ft 513 kts 29°
2026-04-30 14:28 43.58901 -70.46778 34875 ft 514 kts 29°
2026-04-30 14:29 43.71337 -70.37135 34879 ft 514 kts 30°
2026-04-30 14:31 43.86937 -70.24973 34875 ft 514 kts 30°
2026-04-30 14:31 43.96288 -70.17647 34877 ft 514 kts 30°
2026-04-30 14:32 44.05587 -70.10335 34878 ft 513 kts 31°
2026-04-30 14:33 44.11818 -70.05422 34878 ft 513 kts 31°
2026-04-30 14:33 44.21149 -69.98040 34897 ft 513 kts 31°
2026-04-30 14:34 44.27325 -69.93139 34891 ft 513 kts 31°
2026-04-30 14:34 44.33529 -69.88203 34894 ft 513 kts 31°
2026-04-30 14:35 44.42798 -69.80809 34896 ft 512 kts 31°
2026-04-30 14:36 44.48995 -69.75850 34895 ft 512 kts 32°
2026-04-30 14:36 44.55158 -69.70904 34899 ft 512 kts 32°
2026-04-30 14:37 44.61344 -69.65929 34899 ft 513 kts 32°
2026-04-30 14:37 44.67538 -69.60934 34892 ft 513 kts 32°
2026-04-30 14:38 44.73746 -69.55916 34891 ft 513 kts 32°
2026-04-30 14:38 44.79900 -69.50930 34890 ft 513 kts 32°
2026-04-30 14:39 44.86099 -69.45894 34886 ft 513 kts 32°
2026-04-30 14:39 44.92292 -69.40850 34892 ft 514 kts 32°
2026-04-30 14:40 45.01581 -69.33259 34886 ft 516 kts 32°
2026-04-30 14:40 45.07784 -69.28178 34894 ft 515 kts 32°
2026-04-30 14:41 45.13949 -69.23114 34907 ft 513 kts 32°
2026-04-30 14:41 45.20122 -69.18029 34910 ft 513 kts 32°
2026-04-30 14:42 45.26296 -69.12930 34908 ft 513 kts 32°
2026-04-30 14:42 45.32478 -69.07811 34934 ft 514 kts 32°
2026-04-30 14:43 45.38640 -69.02696 34946 ft 515 kts 32°
2026-04-30 14:43 45.44832 -68.97543 34946 ft 516 kts 32°
2026-04-30 14:44 45.51002 -68.92396 34954 ft 516 kts 32°
2026-04-30 14:44 45.57210 -68.87203 34943 ft 516 kts 32°
2026-04-30 14:45 45.63423 -68.81994 34958 ft 516 kts 32°
2026-04-30 14:45 45.69591 -68.76807 34959 ft 516 kts 32°
2026-04-30 14:46 45.75773 -68.71596 34960 ft 514 kts 32°
2026-04-30 14:46 45.81911 -68.66409 34963 ft 513 kts 32°
2026-04-30 14:47 45.88058 -68.61200 34969 ft 511 kts 32°
2026-04-30 14:47 45.94156 -68.56020 34978 ft 510 kts 32°
2026-04-30 14:48 46.00263 -68.50818 34985 ft 508 kts 32°
2026-04-30 14:48 46.06311 -68.45654 34984 ft 507 kts 32°
2026-04-30 14:49 46.12379 -68.40458 34999 ft 506 kts 32°
2026-04-30 14:49 46.18420 -68.35273 34998 ft 506 kts 32°
2026-04-30 14:50 46.27500 -68.27453 35002 ft 505 kts 32°
2026-04-30 14:51 46.36521 -68.19654 35009 ft 504 kts 32°
2026-04-30 14:52 46.45549 -68.11820 34996 ft 503 kts 32°
2026-04-30 14:52 46.54521 -68.04002 34982 ft 502 kts 32°
2026-04-30 14:53 46.63485 -67.96162 34973 ft 502 kts 32°
2026-04-30 14:54 46.75453 -67.85646 34975 ft 501 kts 32°
2026-04-30 14:55 46.84379 -67.77767 34968 ft 501 kts 32°
2026-04-30 14:56 46.96280 -67.67212 34972 ft 500 kts 32°
2026-04-30 14:57 47.05174 -67.59289 34978 ft 499 kts 32°
2026-04-30 14:58 47.17007 -67.48698 34976 ft 498 kts 32°
2026-04-30 14:58 47.25877 -67.40721 34979 ft 497 kts 32°
2026-04-30 15:00 47.40286 -67.26850 34982 ft 495 kts 41°
2026-04-30 15:01 47.50670 -67.13527 34990 ft 495 kts 42°
2026-04-30 15:01 47.58467 -67.03542 34991 ft 495 kts 41°
2026-04-30 15:02 47.63685 -66.96878 35002 ft 495 kts 41°
2026-04-30 15:03 47.76686 -66.80199 35010 ft 493 kts 42°
2026-04-30 15:04 47.89621 -66.63481 35031 ft 490 kts 42°
2026-04-30 15:06 48.02395 -66.46857 35044 ft 487 kts 42°
2026-04-30 15:07 48.12596 -66.33501 35058 ft 485 kts 42°
2026-04-30 15:08 48.21879 -66.21282 35062 ft 484 kts 42°
2026-04-30 15:09 48.34482 -66.04595 35070 ft 482 kts 42°
2026-04-30 15:10 48.44515 -65.91227 35067 ft 481 kts 42°
2026-04-30 15:11 48.59480 -65.71153 35066 ft 480 kts 42°
2026-04-30 15:13 48.71939 -65.54316 35066 ft 481 kts 42°
2026-04-30 15:14 48.89400 -65.30517 35060 ft 482 kts 42°
2026-04-30 15:17 49.11790 -64.99656 35058 ft 483 kts 42°
2026-04-30 15:19 49.31616 -64.72001 35076 ft 483 kts 43°
2026-04-30 17:39 57.06415 -34.22328 37256 ft 527 kts 90°
2026-04-30 17:42 57.05816 -33.55184 37254 ft 525 kts 90°
2026-04-30 17:43 57.05383 -33.21716 37252 ft 524 kts 91°
2026-04-30 17:44 57.04746 -32.81573 37263 ft 523 kts 91°
2026-04-30 17:47 57.03554 -32.21563 37261 ft 522 kts 91°
2026-04-30 17:48 57.02430 -31.74991 37265 ft 522 kts 91°
2026-04-30 17:50 57.00935 -31.21795 37273 ft 522 kts 91°
2026-04-30 17:52 56.99667 -30.81972 37274 ft 521 kts 92°
2026-04-30 17:54 56.97530 -30.22335 37282 ft 521 kts 92°
2026-04-30 17:56 56.94863 -29.69496 37288 ft 520 kts 95°
2026-04-30 17:58 56.92387 -29.30100 37292 ft 519 kts 95°
2026-04-30 18:00 56.88937 -28.77670 37295 ft 518 kts 95°
2026-04-30 18:01 56.86675 -28.45065 37296 ft 517 kts 95°
2026-04-30 18:02 56.83857 -28.06100 37298 ft 515 kts 95°
2026-04-30 18:04 56.80924 -27.67268 37299 ft 514 kts 96°
2026-04-30 18:06 56.76836 -27.15723 37304 ft 513 kts 96°
2026-04-30 18:08 56.73271 -26.72893 37310 ft 512 kts 96°
2026-04-30 18:10 56.68817 -26.21807 37309 ft 510 kts 97°
2026-04-30 18:11 56.64767 -25.77404 37314 ft 508 kts 97°
2026-04-30 18:13 56.61785 -25.45820 37315 ft 506 kts 97°
2026-04-30 18:14 56.58735 -25.14416 37314 ft 505 kts 97°
2026-04-30 18:15 56.54984 -24.76920 37316 ft 503 kts 98°
2026-04-30 18:16 56.52431 -24.52065 37319 ft 502 kts 98°
2026-04-30 18:17 56.51136 -24.39650 37318 ft 501 kts 98°
2026-04-30 18:18 56.49170 -24.21044 37320 ft 501 kts 98°
2026-04-30 18:18 56.47853 -24.08734 37317 ft 500 kts 98°
2026-04-30 18:19 56.46520 -23.96394 37317 ft 500 kts 98°
2026-04-30 18:19 56.45175 -23.84069 37320 ft 499 kts 98°
2026-04-30 18:20 56.43817 -23.71748 37315 ft 498 kts 98°
2026-04-30 18:20 56.42460 -23.59548 37321 ft 497 kts 98°
2026-04-30 18:21 56.41084 -23.47295 37320 ft 496 kts 99°
2026-04-30 18:21 56.39698 -23.35069 37319 ft 496 kts 99°
2026-04-30 18:22 56.38311 -23.22952 37316 ft 495 kts 99°
2026-04-30 18:22 56.36202 -23.04737 37317 ft 493 kts 99°
2026-04-30 18:23 56.34781 -22.92604 37316 ft 492 kts 99°
2026-04-30 18:23 56.33360 -22.80579 37317 ft 492 kts 99°
2026-04-30 18:24 56.31207 -22.62559 37310 ft 491 kts 99°
2026-04-30 18:25 56.29755 -22.50537 37314 ft 490 kts 99°
2026-04-30 18:25 56.27561 -22.32571 37309 ft 489 kts 100°
2026-04-30 18:26 56.25349 -22.14693 37310 ft 488 kts 100°
2026-04-30 18:27 56.23114 -21.96852 37309 ft 488 kts 100°
2026-04-30 18:28 56.20846 -21.78977 37312 ft 488 kts 100°
2026-04-30 18:28 56.18560 -21.61180 37307 ft 488 kts 100°
2026-04-30 18:29 56.15470 -21.37469 37304 ft 489 kts 101°
2026-04-30 18:30 56.12316 -21.13661 37299 ft 490 kts 101°
2026-04-30 18:31 56.09930 -20.95896 37300 ft 491 kts 101°
2026-04-30 18:32 56.07502 -20.78040 37297 ft 491 kts 101°
2026-04-30 18:33 56.05057 -20.60260 37296 ft 492 kts 101°
2026-04-30 18:33 56.02585 -20.42497 37297 ft 492 kts 101°
2026-04-30 18:34 56.00079 -20.24689 37292 ft 490 kts 102°
2026-04-30 18:35 55.98412 -20.12954 37290 ft 489 kts 102°
2026-04-30 18:35 55.96732 -20.01209 37286 ft 487 kts 102°
2026-04-30 18:36 55.93763 -19.83837 37286 ft 486 kts 106°
2026-04-30 18:37 55.90628 -19.66730 37280 ft 484 kts 106°
2026-04-30 18:37 55.88566 -19.55293 37277 ft 484 kts 106°
2026-04-30 18:38 55.86512 -19.43871 37279 ft 484 kts 106°
2026-04-30 18:38 55.84450 -19.32474 37277 ft 484 kts 106°
2026-04-30 18:39 55.82388 -19.21147 37272 ft 485 kts 106°
2026-04-30 18:39 55.80293 -19.09728 37269 ft 486 kts 107°
2026-04-30 18:40 55.78181 -18.98282 37270 ft 487 kts 107°
2026-04-30 18:40 55.76061 -18.86861 37262 ft 488 kts 107°
2026-04-30 18:41 55.73932 -18.75464 37260 ft 489 kts 107°
2026-04-30 18:41 55.71775 -18.63987 37259 ft 489 kts 108°
2026-04-30 18:42 55.69622 -18.52598 37263 ft 489 kts 108°
2026-04-30 18:42 55.66354 -18.35441 37249 ft 489 kts 108°
2026-04-30 18:45 55.54253 -17.73212 37231 ft 485 kts 109°
2026-04-30 18:46 55.52026 -17.61974 37223 ft 484 kts 110°
2026-04-30 18:46 55.49792 -17.50766 37228 ft 483 kts 110°
2026-04-30 18:47 55.47550 -17.39578 37226 ft 483 kts 110°
2026-04-30 18:47 55.45300 -17.28417 37218 ft 482 kts 110°
2026-04-30 18:48 55.43056 -17.17347 37217 ft 481 kts 110°
2026-04-30 18:48 55.40792 -17.06246 37209 ft 480 kts 110°
2026-04-30 18:49 55.38538 -16.95249 37210 ft 479 kts 110°
2026-04-30 18:49 55.36265 -16.84220 37209 ft 479 kts 110°
2026-04-30 18:50 55.33997 -16.73279 37200 ft 478 kts 110°
2026-04-30 18:50 55.31754 -16.62287 37198 ft 478 kts 109°
2026-04-30 18:51 55.29679 -16.51193 37189 ft 477 kts 108°
2026-04-30 18:51 55.27634 -16.40179 37189 ft 476 kts 109°
2026-04-30 18:52 55.25545 -16.29140 37182 ft 476 kts 109°
2026-04-30 18:52 55.23436 -16.18141 37184 ft 476 kts 109°
2026-04-30 18:53 55.21311 -16.07140 37184 ft 475 kts 109°
2026-04-30 18:53 55.19194 -15.96240 37179 ft 475 kts 109°
2026-04-30 18:54 55.17054 -15.85276 37173 ft 475 kts 110°
2026-04-30 18:54 55.14919 -15.74395 37171 ft 474 kts 110°
2026-04-30 18:55 55.13131 -15.65330 37166 ft 473 kts 110°
2026-04-30 18:55 55.09898 -15.49042 37159 ft 472 kts 110°
2026-04-30 18:56 55.06653 -15.32835 37154 ft 470 kts 110°
2026-04-30 18:57 55.03410 -15.16755 37150 ft 469 kts 110°
2026-04-30 18:57 55.01288 -15.06045 37147 ft 469 kts 107°
2026-04-30 18:58 54.99936 -14.89145 37138 ft 471 kts 92°
2026-04-30 18:59 55.00035 -14.72028 37139 ft 470 kts 91°
2026-04-30 19:00 55.00098 -14.49228 37137 ft 469 kts 92°
2026-04-30 19:01 55.00075 -14.26537 37130 ft 469 kts 92°
2026-04-30 19:02 55.00036 -14.09533 37128 ft 469 kts 92°
2026-04-30 19:03 54.98382 -13.87189 37133 ft 464 kts 105°
2026-04-30 19:04 54.95383 -13.65421 37122 ft 463 kts 105°
2026-04-30 19:05 54.92412 -13.43617 37114 ft 462 kts 105°
2026-04-30 19:06 54.89426 -13.21948 37116 ft 461 kts 106°
2026-04-30 19:06 54.87167 -13.05775 37116 ft 460 kts 106°
2026-04-30 19:07 54.84877 -12.89551 37115 ft 460 kts 106°
2026-04-30 19:08 54.81804 -12.68041 37107 ft 460 kts 107°
2026-04-30 19:09 54.79478 -12.51954 37108 ft 460 kts 107°
2026-04-30 19:09 54.77908 -12.41194 37104 ft 460 kts 107°
2026-04-30 19:10 54.74743 -12.19711 37102 ft 460 kts 107°
2026-04-30 19:11 54.72351 -12.03670 37100 ft 460 kts 107°
2026-04-30 19:12 54.70741 -11.92958 37101 ft 460 kts 108°
2026-04-30 19:12 54.69128 -11.82300 37099 ft 460 kts 108°
2026-04-30 19:13 54.65853 -11.60874 37091 ft 460 kts 108°
2026-04-30 19:14 54.64212 -11.50246 37092 ft 460 kts 108°
2026-04-30 19:14 54.62553 -11.39567 37094 ft 460 kts 108°
2026-04-30 19:15 54.60888 -11.28919 37095 ft 459 kts 108°
2026-04-30 19:15 54.58378 -11.12995 37091 ft 459 kts 108°
2026-04-30 19:16 54.56690 -11.02371 37093 ft 459 kts 108°
2026-04-30 19:17 54.54138 -10.86435 37091 ft 459 kts 109°
2026-04-30 19:17 54.51579 -10.70600 37086 ft 459 kts 109°
2026-04-30 19:18 54.48987 -10.54715 37084 ft 459 kts 109°
2026-04-30 19:19 54.47243 -10.44109 37085 ft 459 kts 109°
2026-04-30 19:19 54.44610 -10.28222 37086 ft 460 kts 109°
2026-04-30 19:20 54.42856 -10.17715 37082 ft 460 kts 109°
2026-04-30 19:21 54.40184 -10.01834 37080 ft 461 kts 109°
2026-04-30 19:22 54.36592 -9.80705 37087 ft 461 kts 110°
2026-04-30 19:23 54.31142 -9.49131 37084 ft 462 kts 110°
2026-04-30 19:24 54.28391 -9.33391 37092 ft 461 kts 110°
2026-04-30 19:25 54.23730 -9.07053 37103 ft 462 kts 110°
2026-04-30 19:26 54.19977 -8.86119 37100 ft 462 kts 110°
2026-04-30 19:27 54.17121 -8.70347 37103 ft 462 kts 110°
2026-04-30 19:28 54.14261 -8.54684 37097 ft 462 kts 111°
2026-04-30 19:29 54.10408 -8.33794 37096 ft 463 kts 111°
2026-04-30 19:30 54.06512 -8.12906 37108 ft 463 kts 111°
2026-04-30 19:31 54.02568 -7.91994 37097 ft 463 kts 111°
2026-04-30 19:31 53.99589 -7.76348 37097 ft 463 kts 111°
2026-04-30 19:32 53.97600 -7.65978 37099 ft 463 kts 111°
2026-04-30 19:32 53.95592 -7.55558 37100 ft 463 kts 111°
2026-04-30 19:33 53.93585 -7.45200 37106 ft 463 kts 111°
2026-04-30 19:33 53.91560 -7.34810 37102 ft 463 kts 111°
2026-04-30 19:34 53.89522 -7.24411 37101 ft 463 kts 111°
2026-04-30 19:35 53.86470 -7.08938 37104 ft 463 kts 111°
2026-04-30 19:35 53.84409 -6.98558 37107 ft 463 kts 111°
2026-04-30 19:36 53.82354 -6.88266 37112 ft 463 kts 111°
2026-04-30 19:36 53.79588 -6.74490 37109 ft 463 kts 111°
2026-04-30 19:37 53.77506 -6.64190 37110 ft 463 kts 111°
2026-04-30 19:37 53.75419 -6.53913 37115 ft 463 kts 112°
2026-04-30 19:38 53.73313 -6.43603 37109 ft 463 kts 112°
2026-04-30 19:38 53.71212 -6.33364 37112 ft 463 kts 112°
2026-04-30 19:39 53.69093 -6.23094 37110 ft 462 kts 112°
2026-04-30 19:39 53.66977 -6.12890 37109 ft 462 kts 112°
2026-04-30 19:40 53.64842 -6.02644 37108 ft 461 kts 112°
2026-04-30 19:40 53.62714 -5.92484 37108 ft 461 kts 112°
2026-04-30 19:41 53.60570 -5.82301 37124 ft 460 kts 112°
2026-04-30 19:41 53.58430 -5.72189 37121 ft 460 kts 113°
2026-04-30 19:42 53.56277 -5.62051 37121 ft 460 kts 113°
2026-04-30 19:42 53.54312 -5.51768 37097 ft 463 kts 106°
2026-04-30 19:43 53.53405 -5.41084 37114 ft 467 kts 96°
2026-04-30 19:44 53.53110 -5.24650 37113 ft 468 kts 95°
2026-04-30 19:44 53.52847 -5.13699 37117 ft 468 kts 96°
2026-04-30 19:45 53.52492 -5.02827 37107 ft 468 kts 97°
2026-04-30 19:45 53.52123 -4.91941 37109 ft 468 kts 97°
2026-04-30 19:46 53.51755 -4.81006 37110 ft 468 kts 97°
2026-04-30 19:46 53.51383 -4.70120 37111 ft 468 kts 97°
2026-04-30 19:47 53.51001 -4.59203 37111 ft 468 kts 97°
2026-04-30 19:47 53.50608 -4.48248 37111 ft 468 kts 97°
2026-04-30 19:48 53.50209 -4.37391 37117 ft 468 kts 97°
2026-04-30 19:48 53.49796 -4.26449 37119 ft 468 kts 97°
2026-04-30 19:49 53.49374 -4.15516 37129 ft 468 kts 97°
2026-04-30 19:49 53.48652 -3.99239 37136 ft 465 kts 102°
2026-04-30 19:50 53.47173 -3.88737 37137 ft 460 kts 112°
2026-04-30 19:50 53.45024 -3.78629 37146 ft 459 kts 112°
2026-04-30 19:51 53.42901 -3.68526 37149 ft 460 kts 112°
2026-04-30 19:51 53.40713 -3.58538 37155 ft 458 kts 117°
2026-04-30 19:52 53.37925 -3.48904 37156 ft 457 kts 119°
2026-04-30 19:52 53.35164 -3.39424 37160 ft 458 kts 118°
2026-04-30 19:53 53.32389 -3.29802 37158 ft 458 kts 118°
2026-04-30 19:53 53.29621 -3.20264 37160 ft 458 kts 118°
2026-04-30 19:54 53.26822 -3.10661 37158 ft 458 kts 118°
2026-04-30 19:54 53.24022 -3.01091 37157 ft 458 kts 118°
2026-04-30 19:55 53.21235 -2.91597 37156 ft 458 kts 118°
2026-04-30 19:55 53.18422 -2.82057 37159 ft 458 kts 118°
2026-04-30 19:56 53.15698 -2.72851 37161 ft 457 kts 118°
2026-04-30 19:56 53.12871 -2.63336 37171 ft 457 kts 119°
2026-04-30 19:57 53.10043 -2.53856 37183 ft 456 kts 119°
2026-04-30 19:57 53.07229 -2.44454 37188 ft 455 kts 119°
2026-04-30 19:58 53.05820 -2.39758 37000 ft 452 kts 119°
2026-04-30 19:58 53.04410 -2.35079 36650 ft 452 kts 120°
2026-04-30 19:58 53.02715 -2.30734 36166 ft 449 kts 133°
2026-04-30 19:58 53.00382 -2.27329 35819 ft 443 kts 149°
2026-04-30 19:59 52.97779 -2.24726 35640 ft 438 kts 150°
2026-04-30 19:59 52.95167 -2.22093 35337 ft 439 kts 149°
2026-04-30 19:59 52.89951 -2.16725 34627 ft 438 kts 149°
2026-04-30 20:00 52.87413 -2.14083 34265 ft 433 kts 149°
2026-04-30 20:00 52.84869 -2.11429 33848 ft 429 kts 149°
2026-04-30 20:00 52.82350 -2.08801 33437 ft 425 kts 149°
2026-04-30 20:00 52.79856 -2.06204 32889 ft 423 kts 149°
2026-04-30 20:01 52.74923 -2.01079 31743 ft 417 kts 149°
2026-04-30 20:01 52.72478 -1.98544 31183 ft 413 kts 149°
2026-04-30 20:01 52.70054 -1.96035 30653 ft 410 kts 149°
2026-04-30 20:02 52.65234 -1.91057 29463 ft 404 kts 149°
2026-04-30 20:02 52.62856 -1.88605 28861 ft 401 kts 149°
2026-04-30 20:03 52.58188 -1.83803 27697 ft 394 kts 149°
2026-04-30 20:03 52.55868 -1.81420 27110 ft 391 kts 149°
2026-04-30 20:03 52.53555 -1.79049 26561 ft 389 kts 149°
2026-04-30 20:03 52.51294 -1.76733 26017 ft 386 kts 149°
2026-04-30 20:04 52.49022 -1.74409 25480 ft 384 kts 149°
2026-04-30 20:04 52.46762 -1.72100 24950 ft 381 kts 149°
2026-04-30 20:04 52.44519 -1.69811 24443 ft 379 kts 149°
2026-04-30 20:05 52.40093 -1.65301 23563 ft 370 kts 149°
2026-04-30 20:05 52.37921 -1.63091 23056 ft 366 kts 149°
2026-04-30 20:05 52.33661 -1.58767 22103 ft 359 kts 149°
2026-04-30 20:06 52.31544 -1.56621 21658 ft 355 kts 149°
2026-04-30 20:06 52.29445 -1.54496 21196 ft 352 kts 149°
2026-04-30 20:06 52.27369 -1.52395 20748 ft 350 kts 149°
2026-04-30 20:06 52.25308 -1.50314 20313 ft 347 kts 149°
2026-04-30 20:07 52.23258 -1.48246 19905 ft 344 kts 149°
2026-04-30 20:07 52.21245 -1.46164 19504 ft 340 kts 145°
2026-04-30 20:07 52.17647 -1.41304 18752 ft 334 kts 139°
2026-04-30 20:08 52.15916 -1.38792 18346 ft 331 kts 139°
2026-04-30 20:08 52.14197 -1.36315 17939 ft 329 kts 140°
2026-04-30 20:08 52.12476 -1.33866 17514 ft 326 kts 140°
2026-04-30 20:08 52.10787 -1.31485 17105 ft 323 kts 140°
2026-04-30 20:09 52.09080 -1.29096 16701 ft 321 kts 140°
2026-04-30 20:09 52.07387 -1.26736 16284 ft 319 kts 140°
2026-04-30 20:09 52.04049 -1.22101 15494 ft 315 kts 141°
2026-04-30 20:10 52.00733 -1.17508 14687 ft 311 kts 141°
2026-04-30 20:10 51.99092 -1.15238 14322 ft 309 kts 141°
2026-04-30 20:10 51.97454 -1.12977 13939 ft 308 kts 141°
2026-04-30 20:11 51.94223 -1.08523 13094 ft 305 kts 141°
2026-04-30 20:11 51.92608 -1.06298 12698 ft 303 kts 141°
2026-04-30 20:11 51.91003 -1.04086 12311 ft 301 kts 141°
2026-04-30 20:12 51.87831 -0.99727 11553 ft 292 kts 141°
2026-04-30 20:12 51.86315 -0.97647 11164 ft 280 kts 141°
2026-04-30 20:12 51.85013 -0.95417 10772 ft 275 kts 124°
2026-04-30 20:13 51.84106 -0.92701 10423 ft 273 kts 125°
2026-04-30 20:13 51.82800 -0.90605 10034 ft 261 kts 152°
2026-04-30 20:13 51.81144 -0.89547 9638 ft 250 kts 163°
2026-04-30 20:13 51.79515 -0.88824 9245 ft 242 kts 165°
2026-04-30 20:14 51.77902 -0.88154 8843 ft 235 kts 165°
2026-04-30 20:14 51.76320 -0.87504 8569 ft 234 kts 165°
2026-04-30 20:14 51.74740 -0.86859 8329 ft 233 kts 165°
2026-04-30 20:14 51.73187 -0.86229 8259 ft 228 kts 166°
2026-04-30 20:15 51.71651 -0.85606 8208 ft 231 kts 166°
2026-04-30 20:15 51.70081 -0.84966 8203 ft 235 kts 166°
2026-04-30 20:15 51.68486 -0.84317 8199 ft 235 kts 166°
2026-04-30 20:15 51.66899 -0.83673 8186 ft 235 kts 166°
2026-04-30 20:16 51.65313 -0.83031 8185 ft 234 kts 166°
2026-04-30 20:16 51.63729 -0.82755 8172 ft 232 kts 188°
2026-04-30 20:16 51.62247 -0.83791 8017 ft 244 kts 217°
2026-04-30 20:16 51.61161 -0.85954 7645 ft 253 kts 237°
2026-04-30 20:17 51.60317 -0.88472 7276 ft 257 kts 240°
2026-04-30 20:17 51.59502 -0.91056 6909 ft 259 kts 240°
2026-04-30 20:17 51.58701 -0.93611 6499 ft 253 kts 240°
2026-04-30 20:17 51.57856 -0.96010 6066 ft 245 kts 227°
2026-04-30 20:18 51.56516 -0.97542 5652 ft 233 kts 195°
2026-04-30 20:18 51.54954 -0.97947 5273 ft 225 kts 182°
2026-04-30 20:18 51.53398 -0.98061 4868 ft 221 kts 181°
2026-04-30 20:18 51.51884 -0.98044 4440 ft 214 kts 168°
2026-04-30 20:19 51.50607 -0.96986 4100 ft 203 kts 133°
2026-04-30 20:19 51.50095 -0.95783 4012 ft 191 kts 121°
2026-04-30 20:19 51.49337 -0.93415 4031 ft 175 kts 121°
2026-04-30 20:19 51.48782 -0.91664 4027 ft 175 kts 121°
2026-04-30 20:20 51.48237 -0.89928 4004 ft 173 kts 121°
2026-04-30 20:20 51.47783 -0.88173 3985 ft 172 kts 105°
2026-04-30 20:20 51.47695 -0.86220 4017 ft 179 kts 99°
2026-04-30 20:20 51.47651 -0.84222 4013 ft 182 kts 97°
2026-04-30 20:21 51.47637 -0.82179 4003 ft 182 kts 96°
2026-04-30 20:21 51.47637 -0.80149 3920 ft 184 kts 96°
2026-04-30 20:21 51.47642 -0.78103 3684 ft 181 kts 96°
2026-04-30 20:21 51.47651 -0.76116 3445 ft 175 kts 96°
2026-04-30 20:22 51.47658 -0.74190 3210 ft 169 kts 96°
2026-04-30 20:22 51.47662 -0.72953 3067 ft 168 kts 97°
2026-04-30 20:22 51.47671 -0.70539 2770 ft 156 kts 97°
2026-04-30 20:22 51.47678 -0.68862 2580 ft 148 kts 97°
2026-04-30 20:23 51.47680 -0.67763 2465 ft 150 kts 97°
2026-04-30 20:23 51.47685 -0.66094 2248 ft 148 kts 96°
2026-04-30 20:23 51.47691 -0.64461 2049 ft 145 kts 96°
2026-04-30 20:23 51.47697 -0.62837 1862 ft 143 kts 95°
2026-04-30 20:24 51.47703 -0.61256 1667 ft 145 kts 95°
2026-04-30 20:24 51.47709 -0.59673 1460 ft 137 kts 94°
2026-04-30 20:24 51.47714 -0.58199 1293 ft 129 kts 93°
2026-04-30 20:24 51.47719 -0.56765 1142 ft 129 kts 92°
2026-04-30 20:25 51.47722 -0.53786 764 ft 134 kts 90°
2026-04-30 20:25 51.47725 -0.52316 578 ft 134 kts 88°
2026-04-30 20:26 51.47742 -0.49315 237 ft 135 kts 88°
2026-04-30 20:26 51.47757 -0.46478 97 ft 94 kts 90°
2026-04-30 20:26 51.47759 -0.45714 92 ft 47 kts 89°
2026-04-30 20:27 51.47629 -0.45470 91 ft 0 kts 179°
2026-04-30 20:27 51.47618 -0.45471 92 ft 3 kts 188°
2026-04-30 20:28 51.47592 -0.45783 92 ft 17 kts 270°
2026-04-30 20:28 51.47594 -0.46166 95 ft 17 kts 270°
2026-04-30 20:29 51.47591 -0.46545 92 ft 17 kts 269°
2026-04-30 20:30 51.47580 -0.47077 95 ft 16 kts 269°
2026-04-30 20:30 51.47579 -0.47658 95 ft 18 kts 270°
2026-04-30 20:31 51.47396 -0.47877 92 ft 14 kts 181°
2026-04-30 20:32 51.47147 -0.47872 92 ft 13 kts 179°
2026-04-30 20:32 51.46997 -0.47883 92 ft 6 kts 216°
2026-04-30 20:33 51.46982 -0.47952 95 ft 6 kts 262°
2026-04-30 20:33 51.46980 -0.48012 95 ft 0 kts 267°